Home   Weather   Zaandam   Past weeks

Flag for Netherlands Past Weather in Zaandam, Netherlands — Yesterday and Last 2 Weeks

46 °F

Low clouds.

Feels Like: 45 °F
Forecast: 44 / 52 °F
Wind: 3 mph from East

Location: Amsterdam Schiphol Airport

Current Time: Oct 25, 2016 at 1:45:55 AM

Latest Report: Oct 25, 2016 at 12:55 AM

Visibility: 4 mi

Pressure: 30.01 "Hg

Humidity: 93%

Dew Point: 45 °F

Location of ZaandamLocation

Past Weather in Zaandam — Graph


Zaandam Temperature Yesterday

Maximum temperature yesterday: 48 °F (at 12:55 PM)
Minimum temperature yesterday: 39 °F (at 12:55 AM)
Average temperature yesterday: 45 °F

High & Low Weather Summary for the Past Weeks

High66 °F (Oct 16, 2:55 PM)100% (Oct 9, 11:25 PM)30.27 "Hg (Oct 9, 11:25 PM)
Low34 °F (Oct 23, 4:55 AM)54% (Oct 23, 2:55 PM)29.65 "Hg (Oct 15, 1:25 AM)
Average49 °F85%30.00 "Hg
* Reported Oct 9 11:25 PM — Oct 24 11:55 PM, Zaandam, Weather by CustomWeather, © 2016

Note: Actual official high and low records may vary slightly from our data, if they occured in-between our weather recording intervals... More about our weather records


Zaandam Weather History for the Previous 24 Hours

Scroll right to see more
Time TempWeatherWind HumidityBarometerVisibility
11:55 PM
Mon, Oct 24
46 °FLow clouds.5 mph93%30.01 "Hg4 mi
11:25 PM46 °FLow clouds.6 mph93%30.01 "Hg4 mi
10:55 PM46 °FOvercast.3 mph93%29.98 "Hg4 mi
10:25 PM46 °FPassing clouds.6 mph93%29.98 "Hg4 mi
9:55 PM46 °FPassing clouds.7 mph87%29.98 "Hg4 mi
9:25 PM46 °FPassing clouds.8 mph87%29.98 "Hg4 mi
8:55 PM46 °FPassing clouds.7 mph87%29.98 "Hg5 mi
8:25 PM46 °FPassing clouds.10 mph87%29.95 "Hg5 mi
7:55 PM46 °FPassing clouds.8 mph87%29.95 "Hg5 mi
7:25 PM46 °FPassing clouds.7 mph87%29.95 "Hg5 mi
6:55 PM46 °FPassing clouds.8 mph87%29.95 "Hg4 mi
6:25 PM46 °FPartly sunny.9 mph87%29.95 "Hg4 mi
5:55 PM46 °FPartly sunny.10 mph93%29.95 "Hg4 mi
5:25 PM46 °FPartly sunny.10 mph87%29.95 "Hg4 mi
4:55 PM48 °FPartly sunny.12 mph82%29.92 "Hg4 mi
4:25 PM46 °FPartly sunny.12 mph87%29.92 "Hg5 mi
3:55 PM48 °FPassing clouds.13 mph82%29.92 "Hg5 mi
3:25 PM46 °FScattered clouds.10 mph87%29.92 "Hg5 mi
2:55 PM46 °FPassing clouds.12 mph87%29.92 "Hg6 mi
2:25 PM48 °FPassing clouds.9 mph82%29.92 "HgN/A
1:55 PM48 °FPassing clouds.10 mph82%29.92 "HgN/A
1:25 PM48 °FPassing clouds.12 mph82%29.92 "HgN/A
12:55 PM48 °FPassing clouds.12 mph82%29.92 "HgN/A
12:25 PM46 °FPassing clouds.13 mph87%29.92 "HgN/A
11:55 AM46 °FPassing clouds.14 mph87%29.92 "HgN/A
11:25 AM46 °FSunny.12 mph87%29.92 "Hg10 mi
10:55 AM46 °FClear.13 mph87%29.92 "Hg6 mi
10:25 AM46 °FPassing clouds.13 mph87%29.92 "HgN/A
9:55 AM46 °FPassing clouds.12 mph87%29.92 "HgN/A
9:25 AM45 °FPassing clouds.10 mph93%29.92 "HgN/A
8:55 AM45 °FPassing clouds.9 mph93%29.92 "HgN/A
8:25 AM45 °FSunny.8 mph87%29.92 "Hg10 mi
7:55 AM45 °FClear.8 mph87%29.92 "Hg10 mi
7:25 AM45 °FClear.8 mph87%29.92 "Hg10 mi
6:55 AM45 °FClear.10 mph87%29.92 "Hg4 mi
6:25 AM45 °FClear.9 mph87%29.92 "Hg4 mi
5:55 AM45 °FClear.8 mph87%29.92 "Hg4 mi
5:25 AM45 °FClear.7 mph87%29.92 "Hg4 mi
4:55 AM45 °FClear.7 mph87%29.92 "Hg4 mi
4:25 AM41 °FClear.7 mph100%29.92 "Hg4 mi
3:55 AM41 °FClear.6 mph93%29.92 "Hg4 mi
3:25 AM43 °FClear.5 mph93%29.92 "Hg4 mi
2:55 AM41 °FClear.5 mph93%29.92 "Hg4 mi
2:25 AM41 °FClear.6 mph93%29.92 "Hg5 mi
1:55 AM41 °FClear.7 mph93%29.92 "Hg6 mi
1:25 AM41 °FClear.6 mph87%29.92 "Hg6 mi
Weather by CustomWeather, © 2016

See weather overviewHow to use our weather pages